| time (UTC) | temp F | wind direction | speed knots | gust knots | rain 1hr in | rain 24hr in | rain mn in | humidity % | barometer mb |
| 20260905235802 | 53 | 258 | 11.3 | 15.6 | 0.00 | 6.42 | 0.04 | 79 | 1019.0 |
| 20260905235603 | 53 | 258 | 10.4 | 15.6 | 0.00 | 6.42 | 0.04 | 80 | 1019.0 |
| 20260905235403 | 53 | 258 | 8.7 | 15.6 | 0.04 | 6.42 | 0.04 | 79 | 1019.0 |
| 20260905235003 | 53 | 262 | 7.0 | 14.8 | 0.04 | 6.42 | 0.04 | 79 | 1019.0 |
| 20260905234803 | 53 | 259 | 10.4 | 14.8 | 0.04 | 6.42 | 0.04 | 79 | 1019.0 |
| 20260905234604 | 53 | 259 | 10.4 | 14.8 | 0.04 | 6.42 | 0.04 | 78 | 1019.0 |
| 20260905234402 | 53 | 261 | 7.0 | 14.8 | 0.04 | 6.42 | 0.04 | 78 | 1019.0 |
| 20260905234003 | 53 | 257 | 11.3 | 14.8 | 0.04 | 6.42 | 0.04 | 78 | 1019.0 |
| 20260905233804 | 53 | 258 | 8.7 | 13.9 | 0.04 | 6.42 | 0.04 | 78 | 1019.0 |
| 20260905233604 | 53 | 258 | 7.8 | 13.9 | 0.04 | 6.42 | 0.04 | 77 | 1019.0 |
| 20260905233404 | 53 | 260 | 7.8 | 13.9 | 0.04 | 6.42 | 0.04 | 76 | 1019.0 |
| 20260905233202 | 53 | 261 | 11.3 | 15.6 | 0.04 | 6.42 | 0.04 | 76 | 1019.0 |
| 20260905233003 | 53 | 265 | 7.8 | 15.6 | 0.04 | 6.42 | 0.04 | 75 | 1019.0 |
| 20260905232803 | 53 | 268 | 8.7 | 15.6 | 0.04 | 6.42 | 0.04 | 74 | 1019.0 |
| 20260905232602 | 53 | 270 | 8.7 | 16.5 | 0.04 | 6.42 | 0.04 | 74 | 1018.0 |
| 20260905232403 | 54 | 268 | 9.6 | 19.1 | 0.04 | 6.42 | 0.04 | 73 | 1018.0 |
| 20260905232203 | 54 | 270 | 10.4 | 19.1 | 0.04 | 6.42 | 0.04 | 74 | 1018.0 |
| 20260905232003 | 54 | 270 | 10.4 | 19.1 | 0.04 | 6.42 | 0.04 | 73 | 1018.0 |
| 20260905231803 | 54 | 271 | 11.3 | 19.1 | 0.04 | 6.42 | 0.04 | 73 | 1018.0 |
| 20260905231602 | 54 | 271 | 10.4 | 19.1 | 0.04 | 6.42 | 0.04 | 73 | 1018.0 |
| 20260905231403 | 54 | 272 | 13.0 | 20.9 | 0.04 | 6.42 | 0.04 | 73 | 1018.0 |
| 20260905231203 | 54 | 272 | 10.4 | 20.9 | 0.04 | 6.42 | 0.04 | 74 | 1018.0 |
| 20260905231003 | 54 | 271 | 13.0 | 20.9 | 0.04 | 6.42 | 0.04 | 74 | 1018.0 |
| 20260905230804 | 54 | 270 | 11.3 | 20.9 | 0.04 | 6.42 | 0.04 | 74 | 1018.0 |
| 20260905230602 | 54 | 270 | 15.6 | 20.9 | 0.04 | 6.42 | 0.04 | 74 | 1018.0 |
| 20260905230402 | 54 | 271 | 13.0 | 20.0 | 0.04 | 6.42 | 0.04 | 75 | 1018.0 |
| 20260905230203 | 53 | 270 | 11.3 | 20.9 | 0.04 | 6.42 | 0.04 | 75 | 1018.0 |
| 20260905230003 | 53 | 270 | 9.6 | 20.9 | 0.04 | 6.42 | 0.04 | 75 | 1018.0 |
| 20260905225802 | 53 | 271 | 11.3 | 20.9 | 0.04 | 6.42 | 0.04 | 76 | 1018.0 |
| 20260905225603 | 53 | 273 | 13.0 | 20.9 | 0.00 | 6.38 | 0.00 | 76 | 1018.0 |
| 20260905225203 | 53 | 272 | 12.2 | 20.9 | 0.00 | 6.38 | 0.00 | 77 | 1018.0 |
| 20260905225004 | 53 | 271 | 11.3 | 20.0 | 0.00 | 6.38 | 0.00 | 77 | 1018.0 |
| 20260905224802 | 53 | 270 | 9.6 | 20.0 | 0.00 | 6.38 | 0.00 | 78 | 1018.0 |
| 20260905224602 | 53 | 270 | 10.4 | 18.2 | 0.00 | 6.38 | 0.00 | 78 | 1018.0 |
| 20260905224404 | 53 | 270 | 11.3 | 18.2 | 0.00 | 6.38 | 0.00 | 78 | 1018.0 |
| 20260905224204 | 54 | 270 | 13.9 | 18.2 | 0.04 | 6.38 | 0.00 | 78 | 1018.0 |
| 20260905224003 | 54 | 270 | 13.9 | 18.2 | 0.04 | 6.38 | 0.00 | 78 | 1018.0 |
| 20260905223803 | 53 | 270 | 13.9 | 18.2 | 0.04 | 6.38 | 0.00 | 78 | 1018.0 |
| 20260905223603 | 53 | 268 | 11.3 | 18.2 | 0.04 | 6.38 | 0.00 | 78 | 1018.0 |
| 20260905223203 | 54 | 268 | 13.0 | 18.2 | 0.04 | 6.38 | 0.00 | 77 | 1018.0 |
| 20260905223002 | 53 | 267 | 10.4 | 18.2 | 0.04 | 6.38 | 0.00 | 77 | 1018.0 |
| 20260905222803 | 54 | 269 | 13.9 | 18.2 | 0.04 | 6.38 | 0.00 | 77 | 1018.0 |
| 20260905222603 | 53 | 271 | 10.4 | 18.2 | 0.04 | 6.38 | 0.00 | 77 | 1018.0 |
| 20260905222203 | 54 | 273 | 13.9 | 18.2 | 0.04 | 6.38 | 0.00 | 76 | 1018.0 |
| 20260905222003 | 54 | 273 | 10.4 | 18.2 | 0.04 | 6.38 | 0.00 | 75 | 1018.0 |
| 20260905221804 | 54 | 272 | 12.2 | 17.4 | 0.04 | 6.38 | 0.00 | 76 | 1018.0 |
| 20260905221602 | 54 | 270 | 13.0 | 20.9 | 0.04 | 6.38 | 0.00 | 76 | 1018.0 |
| 20260905221402 | 54 | 268 | 11.3 | 20.9 | 0.04 | 6.38 | 0.00 | 76 | 1018.0 |
| 20260905221003 | 54 | 269 | 12.2 | 20.9 | 0.04 | 6.38 | 0.00 | 75 | 1018.0 |
| 20260905220802 | 54 | 269 | 12.2 | 20.9 | 0.04 | 6.38 | 0.00 | 75 | 1018.0 |
| 20260905220603 | 54 | 270 | 13.0 | 18.2 | 0.04 | 6.38 | 0.00 | 75 | 1018.0 |
| 20260905220403 | 54 | 269 | 12.2 | 18.2 | 0.04 | 6.38 | 0.00 | 75 | 1018.0 |
| 20260905220202 | 54 | 269 | 10.4 | 18.2 | 0.04 | 6.38 | 0.00 | 75 | 1018.0 |
| 20260905215603 | 54 | 268 | 13.0 | 20.0 | 0.04 | 6.38 | 6.38 | 75 | 1018.0 |
| 20260905215403 | 54 | 270 | 12.2 | 20.0 | 0.04 | 6.38 | 6.38 | 75 | 1018.0 |
| 20260905215202 | 54 | 270 | 13.9 | 20.0 | 0.04 | 6.38 | 6.38 | 74 | 1018.0 |
| 20260905215003 | 54 | 272 | 11.3 | 20.0 | 0.04 | 6.38 | 6.38 | 75 | 1018.0 |
| 20260905214803 | 54 | 272 | 13.9 | 20.0 | 0.04 | 6.38 | 6.38 | 75 | 1018.0 |
| 20260905214603 | 54 | 273 | 11.3 | 20.0 | 0.04 | 6.38 | 6.38 | 75 | 1018.0 |
| 20260905214403 | 54 | 274 | 12.2 | 20.0 | 0.00 | 6.34 | 6.34 | 75 | 1018.0 |
| 20260905214203 | 54 | 273 | 14.8 | 21.7 | 0.00 | 6.34 | 6.34 | 75 | 1018.0 |
| 20260905214003 | 54 | 270 | 13.0 | 21.7 | 0.00 | 6.34 | 6.34 | 75 | 1018.0 |
| 20260905213804 | 54 | 270 | 14.8 | 21.7 | 0.00 | 6.34 | 6.34 | 75 | 1018.0 |
| 20260905213404 | 54 | 267 | 13.0 | 21.7 | 0.00 | 6.34 | 6.34 | 76 | 1018.0 |
| 20260905212803 | 54 | 266 | 12.2 | 20.9 | 0.00 | 6.34 | 6.34 | 77 | 1018.0 |
| 20260905212603 | 54 | 265 | 12.2 | 20.9 | 0.00 | 6.34 | 6.34 | 77 | 1018.0 |
| 20260905212402 | 54 | 266 | 13.0 | 20.9 | 0.00 | 6.34 | 6.34 | 77 | 1018.0 |
| 20260905212203 | 54 | 267 | 12.2 | 20.9 | 0.00 | 6.34 | 6.34 | 77 | 1018.0 |
| 20260905212003 | 54 | 266 | 13.0 | 20.0 | 0.00 | 6.34 | 6.34 | 78 | 1018.0 |
| 20260905211802 | 54 | 264 | 11.3 | 18.2 | 0.00 | 6.34 | 6.34 | 79 | 1018.0 |
| 20260905211604 | 54 | 263 | 7.8 | 19.1 | 0.04 | 6.34 | 6.34 | 79 | 1018.0 |
| 20260905211403 | 54 | 263 | 13.9 | 19.1 | 0.04 | 6.34 | 6.34 | 79 | 1018.0 |
| 20260905211002 | 54 | 261 | 12.2 | 19.1 | 0.04 | 6.34 | 6.34 | 79 | 1018.0 |
| 20260905210803 | 54 | 260 | 13.0 | 22.6 | 0.04 | 6.34 | 6.34 | 79 | 1018.0 |
| 20260905210603 | 54 | 260 | 15.6 | 22.6 | 0.04 | 6.34 | 6.34 | 79 | 1018.0 |
| 20260905210403 | 54 | 259 | 11.3 | 22.6 | 0.04 | 6.34 | 6.34 | 79 | 1018.0 |
| 20260905210204 | 54 | 259 | 9.6 | 22.6 | 0.04 | 6.34 | 6.34 | 78 | 1018.0 |
| 20260905205804 | 54 | 256 | 12.2 | 19.1 | 0.04 | 6.34 | 6.34 | 79 | 1018.0 |
| 20260905205603 | 54 | 254 | 10.4 | 18.2 | 0.04 | 6.34 | 6.34 | 79 | 1017.0 |
| 20260905205403 | 54 | 253 | 11.3 | 18.2 | 0.04 | 6.34 | 6.34 | 79 | 1017.0 |
| 20260905205204 | 54 | 253 | 12.2 | 18.2 | 0.04 | 6.34 | 6.34 | 79 | 1017.0 |
| 20260905205003 | 54 | 252 | 10.4 | 18.2 | 0.04 | 6.34 | 6.34 | 79 | 1017.0 |
| 20260905204603 | 54 | 254 | 9.6 | 17.4 | 0.04 | 6.34 | 6.34 | 79 | 1017.0 |
| 20260905204003 | 54 | 253 | 8.7 | 20.9 | 0.04 | 6.34 | 6.34 | 78 | 1017.0 |
| 20260905203804 | 54 | 254 | 9.6 | 20.9 | 0.04 | 6.34 | 6.34 | 78 | 1017.0 |
| 20260905203603 | 54 | 252 | 9.6 | 20.9 | 0.04 | 6.34 | 6.34 | 78 | 1017.0 |
| 20260905203403 | 54 | 248 | 15.6 | 20.9 | 0.04 | 6.34 | 6.34 | 77 | 1017.0 |
| 20260905203204 | 54 | 250 | 10.4 | 18.2 | 0.04 | 6.34 | 6.34 | 78 | 1017.0 |
| 20260905203004 | 54 | 252 | 11.3 | 19.1 | 0.04 | 6.34 | 6.34 | 78 | 1017.0 |
| 20260905202803 | 54 | 253 | 11.3 | 19.1 | 0.04 | 6.34 | 6.34 | 78 | 1017.0 |
| 20260905202603 | 54 | 255 | 13.9 | 19.1 | 0.04 | 6.34 | 6.34 | 78 | 1017.0 |
| 20260905202403 | 54 | 256 | 12.2 | 19.1 | 0.04 | 6.34 | 6.34 | 79 | 1017.0 |
| 20260905202002 | 54 | 251 | 11.3 | 18.2 | 0.04 | 6.34 | 6.34 | 79 | 1017.0 |
| 20260905201603 | 54 | 248 | 10.4 | 20.0 | 0.00 | 6.30 | 6.30 | 79 | 1017.0 |
| 20260905201402 | 54 | 249 | 10.4 | 20.0 | 0.00 | 6.30 | 6.30 | 79 | 1017.0 |
| 20260905201203 | 54 | 246 | 11.3 | 20.0 | 0.00 | 6.30 | 6.30 | 79 | 1017.0 |
| 20260905201003 | 54 | 247 | 11.3 | 20.0 | 0.00 | 6.30 | 6.30 | 79 | 1017.0 |
| 20260905200804 | 54 | 247 | 12.2 | 19.1 | 0.00 | 6.30 | 6.30 | 79 | 1017.0 |
| 20260905200603 | 54 | 245 | 12.2 | 16.5 | 0.00 | 6.30 | 6.30 | 79 | 1017.0 |
| 20260905200004 | 54 | 249 | 8.7 | 14.8 | 0.00 | 6.30 | 6.30 | 79 | 1017.0 |
| 20260905195804 | 54 | 248 | 7.8 | 16.5 | 0.00 | 6.30 | 6.30 | 79 | 1017.0 |
| 20260905195404 | 54 | 248 | 9.6 | 18.2 | 0.00 | 6.30 | 6.30 | 78 | 1017.0 |
| 20260905195004 | 54 | 249 | 7.0 | 18.2 | 0.00 | 6.30 | 6.30 | 77 | 1017.0 |
| 20260905194803 | 55 | 251 | 11.3 | 18.2 | 0.00 | 6.30 | 6.30 | 77 | 1017.0 |
| 20260905194603 | 55 | 250 | 8.7 | 18.2 | 0.00 | 6.30 | 6.30 | 76 | 1017.0 |
| 20260905194402 | 55 | 252 | 11.3 | 16.5 | 0.00 | 6.30 | 6.30 | 76 | 1017.0 |
| 20260905194204 | 55 | 252 | 12.2 | 16.5 | 0.00 | 6.30 | 6.30 | 76 | 1017.0 |
| 20260905194003 | 55 | 252 | 11.3 | 18.2 | 0.00 | 6.30 | 6.30 | 76 | 1017.0 |
| 20260905193802 | 55 | 249 | 9.6 | 18.2 | 0.00 | 6.30 | 6.30 | 76 | 1017.0 |
| 20260905193603 | 55 | 250 | 12.2 | 18.2 | 0.00 | 6.30 | 6.30 | 76 | 1017.0 |
| 20260905193403 | 55 | 248 | 13.0 | 18.2 | 0.00 | 6.30 | 6.30 | 76 | 1017.0 |
| 20260905193202 | 55 | 248 | 11.3 | 18.2 | 0.00 | 6.30 | 6.30 | 76 | 1017.0 |
| 20260905193002 | 55 | 248 | 11.3 | 16.5 | 0.00 | 6.30 | 6.30 | 77 | 1017.0 |
| 20260905192603 | 55 | 248 | 11.3 | 15.6 | 0.00 | 6.30 | 6.30 | 76 | 1017.0 |
| 20260905192404 | 55 | 247 | 10.4 | 15.6 | 0.00 | 6.30 | 6.30 | 76 | 1017.0 |
| 20260905192205 | 55 | 248 | 11.3 | 16.5 | 0.00 | 6.30 | 6.30 | 77 | 1017.0 |
| 20260905192002 | 55 | 250 | 10.4 | 17.4 | 0.00 | 6.30 | 6.30 | 76 | 1017.0 |
| 20260905191604 | 55 | 255 | 11.3 | 17.4 | 0.00 | 6.30 | 6.30 | 76 | 1017.0 |
| 20260905191202 | 55 | 255 | 11.3 | 17.4 | 0.00 | 6.30 | 6.30 | 77 | 1017.0 |
| 20260905191004 | 55 | 255 | 9.6 | 17.4 | 0.00 | 6.30 | 6.30 | 77 | 1017.0 |
| 20260905190404 | 55 | 251 | 11.3 | 16.5 | 0.00 | 6.30 | 6.30 | 77 | 1017.0 |
| 20260905190203 | 55 | 250 | 12.2 | 16.5 | 0.00 | 6.30 | 6.30 | 77 | 1017.0 |
| 20260905190002 | 55 | 249 | 8.7 | 14.8 | 0.00 | 6.30 | 6.30 | 78 | 1017.0 |
| 20260905185804 | 55 | 250 | 7.0 | 14.8 | 0.00 | 6.30 | 6.30 | 78 | 1017.0 |
| 20260905185603 | 55 | 250 | 7.0 | 14.8 | 0.00 | 6.30 | 6.30 | 77 | 1017.0 |
| 20260905185403 | 55 | 249 | 9.6 | 15.6 | 0.00 | 6.30 | 6.30 | 77 | 1017.0 |
| 20260905185003 | 55 | 248 | 7.0 | 18.2 | 0.00 | 6.30 | 6.30 | 77 | 1017.0 |
| 20260905184802 | 55 | 247 | 11.3 | 18.2 | 0.00 | 6.30 | 6.30 | 76 | 1017.0 |
| 20260905184607 | 55 | 246 | 11.3 | 18.2 | 0.00 | 6.30 | 6.30 | 76 | 1017.0 |
| 20260905184403 | 55 | 247 | 8.7 | 18.2 | 0.00 | 6.30 | 6.30 | 77 | 1017.0 |
| 20260905184204 | 55 | 247 | 12.2 | 18.2 | 0.00 | 6.30 | 6.30 | 77 | 1016.0 |
| 20260905184003 | 55 | 246 | 10.4 | 18.2 | 0.00 | 6.30 | 6.30 | 77 | 1016.0 |
| 20260905183802 | 55 | 243 | 10.4 | 18.2 | 0.00 | 6.34 | 6.30 | 77 | 1016.0 |
| 20260905183603 | 55 | 241 | 13.0 | 18.2 | 0.00 | 6.34 | 6.30 | 77 | 1016.0 |
| 20260905183403 | 55 | 238 | 9.6 | 16.5 | 0.00 | 6.38 | 6.30 | 77 | 1016.0 |
| 20260905183202 | 55 | 233 | 10.4 | 16.5 | 0.00 | 6.38 | 6.30 | 77 | 1016.0 |
| 20260905183003 | 55 | 230 | 8.7 | 16.5 | 0.00 | 6.38 | 6.30 | 77 | 1016.0 |
| 20260905182803 | 55 | 234 | 11.3 | 16.5 | 0.00 | 6.38 | 6.30 | 76 | 1016.0 |
| 20260905182604 | 55 | 233 | 8.7 | 14.8 | 0.00 | 6.38 | 6.30 | 75 | 1016.0 |
| 20260905182202 | 55 | 242 | 7.0 | 14.8 | 0.00 | 6.38 | 6.30 | 73 | 1016.0 |
| 20260905182004 | 56 | 246 | 9.6 | 14.8 | 0.00 | 6.38 | 6.30 | 73 | 1016.0 |
| 20260905181804 | 56 | 247 | 7.0 | 18.2 | 0.00 | 6.38 | 6.30 | 72 | 1016.0 |
| 20260905181405 | 56 | 247 | 7.8 | 18.2 | 0.00 | 6.42 | 6.30 | 72 | 1016.0 |
| 20260905181203 | 56 | 249 | 11.3 | 18.2 | 0.00 | 6.42 | 6.30 | 72 | 1016.0 |
| 20260905181002 | 56 | 251 | 13.0 | 18.2 | 0.00 | 6.42 | 6.30 | 72 | 1016.0 |
| 20260905180803 | 55 | 252 | 11.3 | 17.4 | 0.00 | 6.42 | 6.30 | 73 | 1016.0 |
| 20260905180603 | 55 | 253 | 9.6 | 16.5 | 0.00 | 6.42 | 6.30 | 73 | 1016.0 |
| 20260905180405 | 55 | 255 | 9.6 | 16.5 | 0.00 | 6.42 | 6.30 | 73 | 1016.0 |
| 20260905180004 | 56 | 256 | 12.2 | 17.4 | 0.00 | 6.46 | 6.30 | 72 | 1016.0 |
| 20260905175803 | 56 | 258 | 8.7 | 17.4 | 0.00 | 6.46 | 6.30 | 72 | 1016.0 |
| 20260905174804 | 56 | 273 | 13.9 | 16.5 | 0.04 | 6.46 | 6.30 | 72 | 1016.0 |
| 20260905174603 | 55 | 270 | 10.4 | 16.5 | 0.04 | 6.46 | 6.30 | 72 | 1016.0 |
| 20260905174404 | 56 | 270 | 12.2 | 16.5 | 0.04 | 6.46 | 6.30 | 72 | 1016.0 |
| 20260905174018 | 56 | 269 | 10.4 | 18.2 | 0.04 | 6.50 | 6.30 | 72 | 1016.0 |
| 20260905173602 | 56 | 270 | 10.4 | 18.2 | 0.04 | 6.50 | 6.30 | 72 | 1016.0 |
| 20260905173403 | 56 | 270 | 10.4 | 18.2 | 0.04 | 6.50 | 6.30 | 71 | 1016.0 |
| 20260905173203 | 56 | 270 | 13.0 | 18.2 | 0.04 | 6.50 | 6.30 | 71 | 1016.0 |
| 20260905173002 | 56 | 271 | 11.3 | 19.1 | 0.04 | 6.50 | 6.30 | 71 | 1016.0 |
| 20260905172603 | 56 | 273 | 13.0 | 20.9 | 0.04 | 6.50 | 6.30 | 72 | 1016.0 |
| 20260905172203 | 56 | 275 | 16.5 | 20.9 | 0.04 | 6.50 | 6.30 | 72 | 1016.0 |
| 20260905172004 | 56 | 276 | 14.8 | 20.9 | 0.04 | 6.50 | 6.30 | 72 | 1016.0 |
| 20260905171803 | 55 | 277 | 14.8 | 20.9 | 0.04 | 6.50 | 6.30 | 73 | 1016.0 |
| 20260905171603 | 55 | 276 | 11.3 | 20.0 | 0.12 | 6.50 | 6.30 | 74 | 1016.0 |
| 20260905171403 | 55 | 277 | 13.0 | 20.0 | 0.12 | 6.50 | 6.30 | 73 | 1016.0 |
| 20260905171202 | 55 | 275 | 13.0 | 18.2 | 0.12 | 6.50 | 6.30 | 73 | 1016.0 |
| 20260905170603 | 55 | 274 | 13.9 | 20.9 | 1.77 | 6.50 | 6.30 | 74 | 1016.0 |
| 20260905170402 | 55 | 275 | 9.6 | 20.9 | 2.40 | 6.50 | 6.30 | 74 | 1016.0 |
| 20260905170203 | 55 | 277 | 13.0 | 20.9 | 2.56 | 6.50 | 6.30 | 74 | 1016.0 |
| 20260905170002 | 55 | 277 | 15.6 | 20.9 | 2.99 | 6.50 | 6.30 | 75 | 1016.0 |
| 20260905165802 | 55 | 280 | 13.0 | 22.6 | 3.07 | 6.50 | 6.30 | 75 | 1016.0 |
| 20260905165603 | 55 | 279 | 12.2 | 22.6 | 3.07 | 6.50 | 6.30 | 75 | 1016.0 |
| 20260905165403 | 55 | 279 | 8.7 | 22.6 | 3.11 | 6.50 | 6.30 | 76 | 1016.0 |
| 20260905165203 | 55 | 281 | 15.6 | 22.6 | 3.15 | 6.50 | 6.30 | 74 | 1016.0 |
| 20260905164803 | 55 | 284 | 11.3 | 22.6 | 3.11 | 6.46 | 6.26 | 77 | 1016.0 |
| 20260905164402 | 55 | 290 | 10.4 | 22.6 | 3.11 | 6.50 | 6.26 | 77 | 1016.0 |
| 20260905164203 | 55 | 294 | 12.2 | 22.6 | 3.11 | 6.50 | 6.26 | 77 | 1016.0 |
| 20260905163803 | 54 | 301 | 14.8 | 21.7 | 3.11 | 6.77 | 6.26 | 78 | 1016.0 |
| 20260905163603 | 54 | 302 | 12.2 | 21.7 | 3.15 | 6.77 | 6.26 | 78 | 1016.0 |
| 20260905163405 | 54 | 302 | 14.8 | 21.7 | 3.15 | 6.77 | 6.26 | 78 | 1016.0 |
| 20260905163003 | 54 | 295 | 12.2 | 21.7 | 3.15 | 6.77 | 6.26 | 80 | 1016.0 |
| 20260905162603 | 55 | 289 | 13.0 | 26.1 | 3.27 | 6.77 | 6.26 | 79 | 1016.0 |
| 20260905162404 | 55 | 285 | 13.0 | 26.1 | 3.39 | 6.77 | 6.26 | 78 | 1016.0 |
| 20260905162202 | 55 | 281 | 10.4 | 30.4 | 3.39 | 6.77 | 6.26 | 78 | 1016.0 |
| 20260905162002 | 55 | 278 | 16.5 | 30.4 | 3.39 | 6.77 | 6.26 | 76 | 1016.0 |
| 20260905161603 | 55 | 271 | 18.2 | 34.8 | 3.31 | 6.69 | 6.18 | 73 | 1016.0 |
| 20260905161403 | 56 | 270 | 20.0 | 38.2 | 3.31 | 6.69 | 6.18 | 71 | 1016.0 |
| 20260905161202 | 56 | 271 | 23.5 | 38.2 | 3.31 | 6.69 | 6.18 | 70 | 1014.0 |
| 20260905161003 | 56 | 276 | 18.2 | 39.1 | 2.48 | 5.83 | 5.31 | 69 | 1014.0 |
| 20260905160602 | 57 | 282 | 25.2 | 39.1 | 1.50 | 4.84 | 4.33 | 61 | 1014.0 |
| 20260905160403 | 58 | 288 | 21.7 | 39.1 | 1.06 | 4.41 | 3.90 | 54 | 1014.0 |
| 20260905160003 | 63 | 277 | 19.1 | 29.5 | 0.55 | 3.82 | 3.31 | 39 | 1014.0 |
| 20260905155802 | 64 | 273 | 11.3 | 29.5 | 0.47 | 3.74 | 3.23 | 36 | 1014.0 |
| 20260905155603 | 64 | 269 | 13.0 | 29.5 | 0.47 | 3.74 | 3.23 | 36 | 1014.0 |
| 20260905155403 | 64 | 263 | 14.8 | 29.5 | 0.43 | 3.70 | 3.19 | 35 | 1014.0 |
| 20260905155203 | 65 | 261 | 11.3 | 20.0 | 0.39 | 3.66 | 3.15 | 35 | 1014.0 |
| 20260905155002 | 65 | 262 | 11.3 | 20.9 | 0.39 | 3.66 | 3.15 | 35 | 1014.0 |
| 20260905154804 | 65 | 263 | 8.7 | 24.3 | 0.39 | 3.66 | 3.15 | 35 | 1014.0 |
| 20260905154603 | 65 | 263 | 10.4 | 24.3 | 0.39 | 3.66 | 3.15 | 35 | 1014.0 |
| 20260905154402 | 65 | 264 | 8.7 | 24.3 | 0.39 | 3.66 | 3.15 | 35 | 1014.0 |
| 20260905154203 | 65 | 263 | 14.8 | 24.3 | 0.39 | 3.66 | 3.15 | 35 | 1014.0 |
| 20260905154004 | 65 | 262 | 16.5 | 24.3 | 0.39 | 3.66 | 3.15 | 35 | 1014.0 |
| 20260905153805 | 65 | 262 | 16.5 | 23.5 | 0.39 | 3.66 | 3.15 | 35 | 1014.0 |
| 20260905153615 | 65 | 264 | 12.2 | 28.7 | 0.35 | 3.62 | 3.11 | 35 | 1014.0 |
| 20260905153403 | 65 | 264 | 13.0 | 28.7 | 0.35 | 3.62 | 3.11 | 35 | 1014.0 |
| 20260905153203 | 66 | 260 | 12.2 | 28.7 | 0.35 | 3.62 | 3.11 | 35 | 1014.0 |
| 20260905152802 | 66 | 258 | 19.1 | 28.7 | 0.35 | 3.62 | 3.11 | 34 | 1014.0 |
| 20260905152602 | 67 | 251 | 13.9 | 26.1 | 0.12 | 3.39 | 2.87 | 34 | 1014.0 |
| 20260905152404 | 67 | 249 | 9.6 | 26.1 | 0.12 | 3.39 | 2.87 | 36 | 1014.0 |
| 20260905152204 | 65 | 251 | 16.5 | 26.1 | 0.12 | 3.39 | 2.87 | 37 | 1014.0 |
| 20260905152003 | 65 | 249 | 14.8 | 26.1 | 0.12 | 3.39 | 2.87 | 37 | 1014.0 |
| 20260905151804 | 64 | 247 | 11.3 | 21.7 | 0.12 | 3.39 | 2.87 | 38 | 1014.0 |
| 20260905150402 | 65 | 246 | 12.2 | 20.9 | 0.00 | 3.31 | 2.76 | 35 | 1014.0 |
| 20260905150003 | 65 | 249 | 12.2 | 18.2 | 0.00 | 3.31 | 2.76 | 36 | 1014.0 |
| 20260905145204 | 65 | 245 | 9.6 | 16.5 | 0.51 | 3.31 | 2.76 | 37 | 1014.0 |
| 20260905144603 | 66 | 257 | 5.2 | 18.2 | 0.75 | 3.31 | 2.76 | 37 | 1014.0 |
| 20260905144203 | 65 | 261 | 13.9 | 18.2 | 0.79 | 3.31 | 2.76 | 38 | 1014.0 |
| 20260905143203 | 66 | 255 | 10.4 | 19.1 | 1.14 | 3.31 | 2.76 | 37 | 1014.0 |
| 20260905142803 | 69 | 253 | 7.0 | 18.2 | 1.14 | 3.31 | 2.76 | 36 | 1014.0 |
| 20260905141803 | 65 | 264 | 12.2 | 22.6 | 1.14 | 3.31 | 2.76 | 39 | 1014.0 |
| 20260905141203 | 65 | 264 | 10.4 | 22.6 | 1.18 | 3.31 | 2.76 | 41 | 1014.0 |
| 20260905140403 | 66 | 270 | 9.6 | 30.4 | 1.18 | 3.31 | 2.76 | 40 | 1014.0 |
| 20260905134803 | 63 | 261 | 16.5 | 26.1 | 0.51 | 2.56 | 2.01 | 42 | 1014.0 |
| 20260905133403 | 64 | 239 | 12.2 | 23.5 | 0.12 | 2.17 | 1.61 | 39 | 1014.0 |
| 20260905133202 | 64 | 241 | 13.0 | 20.0 | 0.12 | 2.17 | 1.61 | 40 | 1014.0 |
| 20260905132603 | 65 | 241 | 12.2 | 20.9 | 0.12 | 2.17 | 1.61 | 39 | 1014.0 |
| 20260905131003 | 67 | 246 | 11.3 | 18.2 | 0.24 | 2.13 | 1.57 | 35 | 1014.0 |
| 20260905130603 | 68 | 255 | 8.7 | 20.0 | 0.24 | 2.13 | 1.57 | 35 | 1014.0 |
| 20260905125603 | 64 | 264 | 14.8 | 22.6 | 0.24 | 2.13 | 1.57 | 39 | 1014.0 |
| 20260905125205 | 64 | 253 | 9.6 | 18.2 | 0.16 | 2.05 | 1.50 | 38 | 1014.0 |
| 20260905124803 | 64 | 250 | 12.2 | 21.7 | 0.16 | 2.05 | 1.50 | 37 | 1014.0 |
| 20260905124205 | 65 | 247 | 11.3 | 25.2 | 0.31 | 2.05 | 1.50 | 37 | 1013.0 |
| 20260905123003 | 65 | 240 | 14.8 | 22.6 | 0.35 | 2.05 | 1.50 | 34 | 1013.0 |
| 20260905122804 | 65 | 234 | 15.6 | 20.9 | 0.35 | 2.05 | 1.50 | 33 | 1013.0 |
| 20260905122603 | 66 | 239 | 10.4 | 20.0 | 0.35 | 2.05 | 1.50 | 33 | 1014.0 |
| 20260905122403 | 67 | 238 | 9.6 | 20.0 | 0.43 | 2.05 | 1.50 | 34 | 1014.0 |
| 20260905122003 | 69 | 233 | 11.3 | 23.5 | 0.43 | 2.05 | 1.50 | 32 | 1014.0 |
| 20260905121802 | 69 | 233 | 10.4 | 23.5 | 0.43 | 2.05 | 1.50 | 33 | 1014.0 |
| 20260905121602 | 67 | 237 | 11.3 | 23.5 | 0.43 | 2.05 | 1.50 | 33 | 1014.0 |
| 20260905121004 | 68 | 257 | 8.7 | 19.1 | 0.28 | 1.89 | 1.34 | 34 | 1014.0 |
| 20260905120003 | 67 | 242 | 14.8 | 19.1 | 0.31 | 1.89 | 1.34 | 34 | 1014.0 |
| 20260905115603 | 66 | 243 | 9.6 | 19.1 | 0.31 | 1.89 | 1.34 | 33 | 1014.0 |
| 20260905115402 | 66 | 240 | 13.9 | 19.1 | 0.31 | 1.89 | 1.34 | 33 | 1014.0 |
| 20260905114804 | 69 | 238 | 13.0 | 28.7 | 0.47 | 1.89 | 1.34 | 33 | 1014.0 |
| 20260905113803 | 67 | 243 | 13.0 | 24.3 | 0.28 | 1.69 | 1.14 | 33 | 1014.0 |
| 20260905113404 | 66 | 241 | 10.4 | 24.3 | 0.28 | 1.69 | 1.14 | 34 | 1014.0 |
| 20260905113203 | 66 | 244 | 16.5 | 24.3 | 0.28 | 1.69 | 1.14 | 34 | 1014.0 |
| 20260905113003 | 67 | 243 | 13.9 | 24.3 | 0.28 | 1.69 | 1.14 | 33 | 1014.0 |
| 20260905112603 | 67 | 243 | 15.6 | 24.3 | 0.28 | 1.69 | 1.14 | 33 | 1014.0 |
| 20260905112403 | 68 | 244 | 13.0 | 24.3 | 0.20 | 1.61 | 1.06 | 33 | 1014.0 |
| 20260905112203 | 68 | 244 | 8.7 | 20.9 | 0.20 | 1.61 | 1.06 | 34 | 1014.0 |
| 20260905112003 | 67 | 244 | 8.7 | 20.9 | 0.20 | 1.61 | 1.06 | 34 | 1014.0 |
| 20260905111803 | 67 | 245 | 10.4 | 22.6 | 0.20 | 1.61 | 1.06 | 35 | 1014.0 |
| 20260905111603 | 67 | 247 | 13.9 | 24.3 | 0.20 | 1.61 | 1.06 | 35 | 1014.0 |
| 20260905111403 | 67 | 248 | 10.4 | 24.3 | 0.20 | 1.61 | 1.06 | 35 | 1014.0 |
| 20260905111205 | 67 | 248 | 12.2 | 24.3 | 0.20 | 1.61 | 1.06 | 35 | 1014.0 |
| 20260905111002 | 66 | 250 | 16.5 | 24.3 | 0.20 | 1.61 | 1.06 | 35 | 1014.0 |
| 20260905110803 | 66 | 252 | 15.6 | 24.3 | 0.16 | 1.57 | 1.02 | 35 | 1014.0 |
| 20260905110603 | 68 | 249 | 7.8 | 22.6 | 0.16 | 1.57 | 1.02 | 35 | 1014.0 |
| 20260905110203 | 66 | 242 | 16.5 | 22.6 | 0.16 | 1.57 | 1.02 | 37 | 1014.0 |
| 20260905110004 | 66 | 237 | 13.9 | 20.0 | 0.16 | 1.57 | 1.02 | 36 | 1014.0 |
| 20260905105803 | 68 | 236 | 12.2 | 26.1 | 0.16 | 1.57 | 1.02 | 36 | 1014.0 |
| 20260905105603 | 66 | 235 | 13.0 | 26.1 | 0.16 | 1.57 | 1.02 | 37 | 1014.0 |
| 20260905105402 | 66 | 236 | 14.8 | 26.1 | 0.16 | 1.57 | 1.02 | 36 | 1014.0 |
| 20260905105003 | 67 | 238 | 13.0 | 26.1 | 0.08 | 1.50 | 0.94 | 36 | 1014.0 |
| 20260905104603 | 67 | 234 | 12.2 | 19.1 | 0.00 | 1.42 | 0.87 | 36 | 1014.0 |
| 20260905104203 | 67 | 235 | 12.2 | 18.2 | 0.00 | 1.42 | 0.87 | 36 | 1014.0 |
| 20260905103803 | 67 | 243 | 13.9 | 18.2 | 0.00 | 1.42 | 0.87 | 37 | 1014.0 |
| 20260905103609 | 66 | 251 | 13.0 | 20.9 | 0.00 | 1.42 | 0.87 | 38 | 1014.0 |
| 20260905103403 | 67 | 258 | 12.2 | 21.7 | 0.00 | 1.42 | 0.87 | 38 | 1014.0 |
| 20260905103003 | 65 | 269 | 13.0 | 21.7 | 0.00 | 1.42 | 0.87 | 41 | 1014.0 |
| 20260905102803 | 64 | 268 | 13.0 | 21.7 | 0.00 | 1.42 | 0.87 | 42 | 1014.0 |
| 20260905102603 | 64 | 271 | 11.3 | 21.7 | 0.00 | 1.42 | 0.87 | 42 | 1014.0 |
| 20260905101003 | 65 | 246 | 11.3 | 18.2 | 0.00 | 1.42 | 0.87 | 43 | 1014.0 |
| 20260905100603 | 65 | 254 | 9.6 | 20.9 | 0.00 | 1.42 | 0.87 | 43 | 1014.0 |
| 20260905100403 | 65 | 252 | 7.8 | 20.9 | 0.12 | 1.42 | 0.87 | 42 | 1014.0 |
| 20260905100203 | 65 | 248 | 11.3 | 20.9 | 0.12 | 1.42 | 0.87 | 43 | 1014.0 |
| 20260905095802 | 65 | 242 | 11.3 | 18.2 | 0.12 | 1.42 | 0.87 | 42 | 1014.0 |
| 20260905095603 | 64 | 239 | 10.4 | 18.2 | 0.12 | 1.42 | 0.87 | 43 | 1014.0 |
| 20260905095403 | 64 | 239 | 9.6 | 15.6 | 0.12 | 1.42 | 0.87 | 44 | 1014.0 |
| 20260905095204 | 64 | 246 | 10.4 | 16.5 | 0.12 | 1.42 | 0.87 | 44 | 1014.0 |
| 20260905095003 | 64 | 252 | 9.6 | 22.6 | 0.12 | 1.42 | 0.87 | 44 | 1014.0 |
| 20260905094803 | 64 | 255 | 8.7 | 22.6 | 0.12 | 1.42 | 0.87 | 45 | 1014.0 |
| 20260905094603 | 63 | 256 | 10.4 | 22.6 | 0.12 | 1.42 | 0.87 | 45 | 1014.0 |
| 20260905094402 | 62 | 257 | 13.0 | 22.6 | 0.12 | 1.42 | 0.87 | 44 | 1014.0 |
| 20260905094202 | 64 | 254 | 13.0 | 22.6 | 0.12 | 1.42 | 0.87 | 45 | 1014.0 |
| 20260905094003 | 62 | 250 | 11.3 | 20.0 | 0.12 | 1.42 | 0.87 | 45 | 1014.0 |
| 20260905093803 | 63 | 246 | 13.0 | 20.0 | 0.12 | 1.42 | 0.87 | 46 | 1014.0 |
| 20260905093604 | 63 | 245 | 13.9 | 20.0 | 0.12 | 1.42 | 0.87 | 45 | 1014.0 |
| 20260905093403 | 63 | 242 | 13.9 | 20.0 | 0.12 | 1.42 | 0.87 | 45 | 1014.0 |
| 20260905093203 | 63 | 240 | 8.7 | 16.5 | 0.12 | 1.42 | 0.87 | 46 | 1014.0 |
| 20260905093003 | 63 | 249 | 8.7 | 19.1 | 0.12 | 1.42 | 0.87 | 45 | 1014.0 |
| 20260905092802 | 63 | 259 | 8.7 | 19.1 | 0.12 | 1.42 | 0.87 | 46 | 1014.0 |
| 20260905092403 | 64 | 260 | 7.0 | 19.1 | 0.12 | 1.42 | 0.87 | 45 | 1014.0 |
| 20260905092204 | 63 | 260 | 10.4 | 20.9 | 0.12 | 1.42 | 0.87 | 47 | 1014.0 |
| 20260905091803 | 62 | 258 | 13.0 | 22.6 | 0.12 | 1.42 | 0.87 | 45 | 1014.0 |
| 20260905091604 | 62 | 258 | 12.2 | 22.6 | 0.12 | 1.42 | 0.87 | 47 | 1014.0 |
| 20260905091403 | 62 | 258 | 13.0 | 23.5 | 0.12 | 1.42 | 0.87 | 46 | 1014.0 |
| 20260905091202 | 62 | 261 | 16.5 | 23.5 | 0.12 | 1.42 | 0.87 | 47 | 1014.0 |
| 20260905091003 | 62 | 258 | 14.8 | 23.5 | 0.12 | 1.42 | 0.87 | 47 | 1014.0 |
| 20260905090803 | 62 | 258 | 13.0 | 23.5 | 0.12 | 1.42 | 0.87 | 48 | 1014.0 |
| 20260905090604 | 62 | 260 | 13.9 | 23.5 | 0.12 | 1.42 | 0.87 | 48 | 1014.0 |
| 20260905090204 | 62 | 260 | 11.3 | 19.1 | 0.00 | 1.30 | 0.75 | 48 | 1014.0 |
| 20260905085803 | 63 | 258 | 11.3 | 15.6 | 0.00 | 1.30 | 0.75 | 49 | 1014.0 |
| 20260905085403 | 62 | 256 | 8.7 | 20.0 | 0.04 | 1.30 | 0.75 | 49 | 1014.0 |
| 20260905085206 | 62 | 257 | 11.3 | 20.0 | 0.12 | 1.30 | 0.75 | 50 | 1014.0 |
| 20260905085004 | 62 | 256 | 8.7 | 20.0 | 0.16 | 1.30 | 0.75 | 50 | 1014.0 |
| 20260905084802 | 62 | 253 | 10.4 | 20.0 | 0.16 | 1.30 | 0.75 | 52 | 1014.0 |
| 20260905084603 | 61 | 251 | 11.3 | 20.0 | 0.16 | 1.30 | 0.75 | 51 | 1014.0 |
| 20260905084403 | 62 | 253 | 9.6 | 17.4 | 0.16 | 1.30 | 0.75 | 51 | 1014.0 |
| 20260905084203 | 62 | 248 | 9.6 | 17.4 | 0.16 | 1.30 | 0.75 | 49 | 1014.0 |
| 20260905084009 | 63 | 252 | 9.6 | 16.5 | 0.16 | 1.30 | 0.75 | 48 | 1014.0 |
| 20260905083802 | 62 | 256 | 7.8 | 16.5 | 0.16 | 1.30 | 0.75 | 52 | 1014.0 |
| 20260905083403 | 62 | 258 | 7.8 | 17.4 | 0.16 | 1.30 | 0.75 | 52 | 1014.0 |
| 20260905083003 | 62 | 256 | 10.4 | 17.4 | 0.16 | 1.30 | 0.75 | 55 | 1014.0 |
| 20260905082603 | 61 | 254 | 9.6 | 15.6 | 0.16 | 1.30 | 0.75 | 54 | 1014.0 |
| 20260905082403 | 62 | 250 | 8.7 | 15.6 | 0.16 | 1.30 | 0.75 | 54 | 1014.0 |
| 20260905082203 | 61 | 253 | 10.4 | 15.6 | 0.16 | 1.30 | 0.75 | 54 | 1014.0 |
| 20260905081803 | 63 | 254 | 7.8 | 20.9 | 0.16 | 1.30 | 0.75 | 51 | 1014.0 |
| 20260905081604 | 64 | 261 | 9.6 | 20.9 | 0.16 | 1.30 | 0.75 | 50 | 1014.0 |
| 20260905081403 | 63 | 265 | 10.4 | 20.9 | 0.16 | 1.30 | 0.75 | 52 | 1014.0 |
| 20260905081205 | 62 | 266 | 7.8 | 20.9 | 0.16 | 1.30 | 0.75 | 54 | 1013.0 |
| 20260905081004 | 61 | 265 | 8.7 | 18.2 | 0.16 | 1.30 | 0.75 | 56 | 1013.0 |
| 20260905080803 | 62 | 260 | 9.6 | 16.5 | 0.16 | 1.30 | 0.75 | 56 | 1013.0 |
| 20260905080603 | 61 | 260 | 8.7 | 18.2 | 0.16 | 1.30 | 0.75 | 56 | 1013.0 |
| 20260905080204 | 61 | 256 | 8.7 | 25.2 | 0.16 | 1.30 | 0.75 | 57 | 1013.0 |
| 20260905080003 | 61 | 256 | 11.3 | 25.2 | 0.16 | 1.30 | 0.75 | 57 | 1013.0 |
| 20260905075803 | 60 | 257 | 13.9 | 25.2 | 0.16 | 1.30 | 0.75 | 57 | 1013.0 |
| 20260905075607 | 60 | 255 | 13.9 | 25.2 | 0.12 | 1.26 | 0.71 | 56 | 1013.0 |
| 20260905075202 | 61 | 253 | 10.4 | 19.1 | 0.00 | 1.14 | 0.59 | 56 | 1013.0 |
| 20260905075003 | 61 | 252 | 11.3 | 19.1 | 0.00 | 1.14 | 0.59 | 57 | 1013.0 |
| 20260905074803 | 61 | 256 | 12.2 | 19.1 | 0.00 | 1.14 | 0.59 | 57 | 1013.0 |
| 20260905074604 | 61 | 256 | 11.3 | 19.1 | 0.00 | 1.14 | 0.59 | 56 | 1013.0 |
| 20260905074203 | 62 | 263 | 7.8 | 19.1 | 0.00 | 1.14 | 0.59 | 58 | 1013.0 |
| 20260905074003 | 60 | 261 | 14.8 | 19.1 | 0.00 | 1.14 | 0.59 | 59 | 1013.0 |
| 20260905073803 | 61 | 258 | 11.3 | 20.0 | 0.00 | 1.14 | 0.59 | 58 | 1013.0 |
| 20260905073203 | 60 | 255 | 13.0 | 20.0 | 0.00 | 1.14 | 0.59 | 56 | 1013.0 |
| 20260905073003 | 61 | 259 | 12.2 | 20.0 | 0.00 | 1.14 | 0.59 | 58 | 1013.0 |
| 20260905072603 | 60 | 262 | 10.4 | 18.2 | 0.00 | 1.14 | 0.59 | 62 | 1013.0 |
| 20260905072202 | 60 | 256 | 12.2 | 20.0 | 0.00 | 1.14 | 0.59 | 62 | 1013.0 |
| 20260905072003 | 60 | 253 | 13.0 | 20.0 | 0.00 | 1.14 | 0.59 | 62 | 1013.0 |
| 20260905071808 | 60 | 255 | 12.2 | 20.0 | 0.00 | 1.14 | 0.59 | 63 | 1013.0 |
| 20260905071605 | 59 | 256 | 9.6 | 20.0 | 0.00 | 1.14 | 0.59 | 64 | 1013.0 |
| 20260905071203 | 59 | 261 | 7.0 | 17.4 | 0.00 | 1.14 | 0.59 | 65 | 1013.0 |
| 20260905071003 | 59 | 263 | 10.4 | 17.4 | 0.04 | 1.14 | 0.59 | 65 | 1013.0 |
| 20260905070802 | 59 | 262 | 11.3 | 19.1 | 0.04 | 1.14 | 0.59 | 65 | 1013.0 |
| 20260905070603 | 59 | 261 | 11.3 | 19.1 | 0.04 | 1.14 | 0.59 | 64 | 1013.0 |
| 20260905070403 | 59 | 260 | 10.4 | 19.1 | 0.04 | 1.14 | 0.59 | 64 | 1013.0 |
| 20260905070202 | 59 | 262 | 8.7 | 19.1 | 0.04 | 1.14 | 0.59 | 65 | 1013.0 |
| 20260905070004 | 58 | 265 | 14.8 | 20.0 | 0.04 | 1.14 | 0.59 | 65 | 1013.0 |
| 20260905065602 | 59 | 266 | 7.8 | 20.0 | 0.04 | 1.14 | 0.59 | 66 | 1013.0 |
| 20260905065404 | 58 | 264 | 10.4 | 20.0 | 0.04 | 1.14 | 0.59 | 68 | 1013.0 |
| 20260905064804 | 58 | 255 | 8.7 | 18.2 | 0.04 | 1.14 | 0.59 | 67 | 1013.0 |
| 20260905064603 | 58 | 254 | 9.6 | 18.2 | 0.04 | 1.14 | 0.59 | 68 | 1013.0 |
| 20260905064203 | 58 | 250 | 9.6 | 18.2 | 0.04 | 1.14 | 0.59 | 68 | 1013.0 |
| 20260905064003 | 59 | 249 | 7.8 | 16.5 | 0.04 | 1.14 | 0.59 | 68 | 1013.0 |
| 20260905063803 | 58 | 252 | 8.7 | 16.5 | 0.04 | 1.14 | 0.59 | 70 | 1013.0 |
| 20260905063403 | 58 | 250 | 11.3 | 18.2 | 0.04 | 1.14 | 0.59 | 70 | 1013.0 |
| 20260905063202 | 58 | 252 | 9.6 | 18.2 | 0.04 | 1.14 | 0.59 | 69 | 1013.0 |
| 20260905063002 | 58 | 253 | 7.8 | 18.2 | 0.04 | 1.14 | 0.59 | 71 | 1013.0 |
| 20260905062803 | 57 | 252 | 9.6 | 18.2 | 0.04 | 1.14 | 0.59 | 71 | 1013.0 |
| 20260905062603 | 57 | 250 | 12.2 | 18.2 | 0.04 | 1.14 | 0.59 | 71 | 1013.0 |
| 20260905062403 | 57 | 253 | 11.3 | 18.2 | 0.04 | 1.14 | 0.59 | 71 | 1013.0 |
| 20260905062202 | 57 | 253 | 10.4 | 18.2 | 0.04 | 1.14 | 0.59 | 71 | 1013.0 |
| 20260905061803 | 57 | 250 | 13.9 | 22.6 | 0.04 | 1.14 | 0.59 | 71 | 1013.0 |
| 20260905061203 | 57 | 254 | 11.3 | 22.6 | 0.04 | 1.14 | 0.59 | 72 | 1013.0 |
| 20260905061004 | 57 | 255 | 8.7 | 21.7 | 0.00 | 1.10 | 0.55 | 72 | 1013.0 |
| 20260905060803 | 57 | 255 | 15.6 | 21.7 | 0.00 | 1.10 | 0.55 | 72 | 1013.0 |
| 20260905060203 | 57 | 248 | 11.3 | 16.5 | 0.00 | 1.10 | 0.55 | 73 | 1013.0 |
| 20260905060003 | 57 | 248 | 10.4 | 16.5 | 0.00 | 1.10 | 0.55 | 73 | 1013.0 |
| 20260905055804 | 57 | 249 | 10.4 | 16.5 | 0.00 | 1.10 | 0.55 | 73 | 1013.0 |
| 20260905055604 | 57 | 249 | 11.3 | 16.5 | 0.00 | 1.10 | 0.55 | 73 | 1012.0 |
| 20260905055404 | 57 | 250 | 8.7 | 16.5 | 0.00 | 1.10 | 0.55 | 74 | 1012.0 |
| 20260905055003 | 57 | 248 | 11.3 | 22.6 | 0.00 | 1.10 | 0.55 | 74 | 1012.0 |
| 20260905054602 | 57 | 247 | 12.2 | 22.6 | 0.00 | 1.10 | 0.55 | 74 | 1012.0 |
| 20260905054403 | 57 | 248 | 13.9 | 22.6 | 0.00 | 1.10 | 0.55 | 74 | 1012.0 |
| 20260905054203 | 57 | 247 | 11.3 | 16.5 | 0.00 | 1.10 | 0.55 | 74 | 1012.0 |
| 20260905053603 | 57 | 245 | 7.8 | 16.5 | 0.00 | 1.10 | 0.55 | 74 | 1012.0 |
| 20260905053203 | 57 | 247 | 7.8 | 15.6 | 0.00 | 1.10 | 0.55 | 74 | 1012.0 |
| 20260905052203 | 57 | 249 | 11.3 | 18.2 | 0.00 | 1.10 | 0.55 | 75 | 1012.0 |
| 20260905052004 | 57 | 247 | 7.8 | 17.4 | 0.00 | 1.10 | 0.55 | 75 | 1012.0 |
| 20260905051803 | 57 | 248 | 7.8 | 19.1 | 0.00 | 1.10 | 0.55 | 76 | 1012.0 |
| 20260905051605 | 56 | 248 | 11.3 | 19.1 | 0.00 | 1.10 | 0.55 | 75 | 1012.0 |
| 20260905051203 | 56 | 251 | 7.8 | 19.1 | 0.00 | 1.10 | 0.55 | 76 | 1012.0 |
| 20260905051003 | 56 | 253 | 14.8 | 19.1 | 0.00 | 1.10 | 0.55 | 76 | 1012.0 |
| 20260905050803 | 56 | 251 | 9.6 | 18.2 | 0.00 | 1.10 | 0.55 | 76 | 1012.0 |
| 20260905050603 | 56 | 250 | 9.6 | 18.2 | 0.00 | 1.10 | 0.55 | 76 | 1012.0 |
| 20260905050403 | 56 | 248 | 6.1 | 18.2 | 0.00 | 1.10 | 0.55 | 76 | 1012.0 |
| 20260905050003 | 56 | 245 | 12.2 | 16.5 | 0.00 | 1.10 | 0.55 | 76 | 1012.0 |
| 20260905045803 | 56 | 244 | 10.4 | 14.8 | 0.00 | 1.10 | 0.55 | 77 | 1012.0 |
| 20260905045603 | 56 | 245 | 10.4 | 14.8 | 0.00 | 1.10 | 0.55 | 78 | 1012.0 |
| 20260905045404 | 56 | 246 | 8.7 | 20.9 | 0.00 | 1.10 | 0.55 | 78 | 1012.0 |
| 20260905045003 | 56 | 245 | 10.4 | 20.9 | 0.00 | 1.10 | 0.55 | 77 | 1012.0 |
| 20260905044804 | 56 | 247 | 9.6 | 20.9 | 0.00 | 1.10 | 0.55 | 78 | 1012.0 |
| 20260905044604 | 56 | 246 | 11.3 | 20.9 | 0.00 | 1.10 | 0.55 | 77 | 1012.0 |
| 20260905044403 | 56 | 244 | 7.0 | 16.5 | 0.00 | 1.10 | 0.55 | 78 | 1012.0 |
| 20260905044203 | 56 | 243 | 12.2 | 16.5 | 0.00 | 1.10 | 0.55 | 77 | 1012.0 |
| 20260905044003 | 56 | 245 | 9.6 | 16.5 | 0.00 | 1.10 | 0.55 | 78 | 1012.0 |
| 20260905043803 | 56 | 245 | 6.1 | 16.5 | 0.00 | 1.10 | 0.55 | 78 | 1012.0 |
| 20260905043602 | 56 | 245 | 12.2 | 16.5 | 0.00 | 1.10 | 0.55 | 78 | 1012.0 |
| 20260905043403 | 56 | 245 | 9.6 | 14.8 | 0.00 | 1.10 | 0.55 | 78 | 1012.0 |
| 20260905043204 | 56 | 247 | 9.6 | 18.2 | 0.00 | 1.10 | 0.55 | 78 | 1012.0 |
| 20260905043003 | 56 | 250 | 10.4 | 18.2 | 0.00 | 1.10 | 0.55 | 78 | 1012.0 |
| 20260905042803 | 56 | 250 | 7.0 | 18.2 | 0.00 | 1.10 | 0.55 | 79 | 1012.0 |
| 20260905042403 | 56 | 251 | 8.7 | 18.2 | 0.04 | 1.10 | 0.55 | 78 | 1011.0 |
| 20260905041803 | 56 | 241 | 8.7 | 17.4 | 0.04 | 1.10 | 0.55 | 79 | 1011.0 |
| 20260905041604 | 56 | 242 | 7.0 | 17.4 | 0.04 | 1.10 | 0.55 | 79 | 1011.0 |
| 20260905041403 | 56 | 242 | 9.6 | 17.4 | 0.04 | 1.10 | 0.55 | 78 | 1011.0 |
| 20260905041203 | 56 | 244 | 8.7 | 14.8 | 0.04 | 1.10 | 0.55 | 79 | 1011.0 |
| 20260905041005 | 56 | 245 | 9.6 | 16.5 | 0.04 | 1.10 | 0.55 | 79 | 1011.0 |
| 20260905040803 | 56 | 244 | 7.0 | 16.5 | 0.04 | 1.10 | 0.55 | 79 | 1011.0 |
| 20260905040402 | 57 | 243 | 10.4 | 16.5 | 0.04 | 1.10 | 0.55 | 78 | 1011.0 |
| 20260905040203 | 56 | 243 | 11.3 | 16.5 | 0.04 | 1.10 | 0.55 | 78 | 1011.0 |
| 20260905040003 | 56 | 244 | 9.6 | 16.5 | 0.04 | 1.10 | 0.55 | 79 | 1011.0 |
| 20260905035403 | 56 | 241 | 9.6 | 19.1 | 0.04 | 1.10 | 0.55 | 79 | 1011.0 |
| 20260905035204 | 57 | 244 | 9.6 | 19.1 | 0.04 | 1.10 | 0.55 | 78 | 1011.0 |
| 20260905035003 | 57 | 246 | 10.4 | 19.1 | 0.04 | 1.10 | 0.55 | 78 | 1011.0 |
| 20260905034805 | 57 | 250 | 9.6 | 19.1 | 0.04 | 1.10 | 0.55 | 77 | 1011.0 |
| 20260905034403 | 57 | 256 | 10.4 | 19.1 | 0.08 | 1.10 | 0.55 | 77 | 1011.0 |
| 20260905034204 | 57 | 256 | 10.4 | 19.1 | 0.08 | 1.10 | 0.55 | 76 | 1011.0 |
| 20260905034003 | 57 | 257 | 11.3 | 19.1 | 0.08 | 1.10 | 0.55 | 76 | 1011.0 |
| 20260905033803 | 57 | 258 | 11.3 | 19.1 | 0.08 | 1.10 | 0.55 | 76 | 1011.0 |
| 20260905033403 | 57 | 263 | 11.3 | 20.9 | 0.12 | 1.10 | 0.55 | 76 | 1011.0 |
| 20260905033203 | 57 | 261 | 13.9 | 20.9 | 0.12 | 1.10 | 0.55 | 76 | 1011.0 |
| 20260905033003 | 57 | 260 | 10.4 | 20.9 | 0.12 | 1.10 | 0.55 | 76 | 1011.0 |
| 20260905032804 | 57 | 257 | 11.3 | 20.9 | 0.12 | 1.10 | 0.55 | 75 | 1011.0 |
| 20260905032602 | 57 | 254 | 13.0 | 16.5 | 0.08 | 1.06 | 0.51 | 76 | 1011.0 |
| 20260905032403 | 57 | 254 | 11.3 | 20.9 | 0.08 | 1.06 | 0.51 | 76 | 1011.0 |
| 20260905032203 | 57 | 257 | 9.6 | 20.9 | 0.08 | 1.06 | 0.51 | 76 | 1011.0 |
| 20260905032003 | 57 | 258 | 12.2 | 20.9 | 0.08 | 1.06 | 0.51 | 76 | 1011.0 |
| 20260905031803 | 57 | 259 | 9.6 | 20.9 | 0.08 | 1.06 | 0.51 | 76 | 1011.0 |
| 20260905031603 | 57 | 263 | 9.6 | 20.9 | 0.08 | 1.06 | 0.51 | 75 | 1011.0 |
| 20260905031403 | 57 | 266 | 13.0 | 19.1 | 0.08 | 1.06 | 0.51 | 75 | 1011.0 |
| 20260905031203 | 57 | 265 | 9.6 | 20.0 | 0.08 | 1.06 | 0.51 | 76 | 1011.0 |
| 20260905031003 | 57 | 266 | 7.0 | 20.0 | 0.08 | 1.06 | 0.51 | 76 | 1011.0 |
| 20260905030804 | 58 | 266 | 10.4 | 20.0 | 0.08 | 1.06 | 0.51 | 75 | 1011.0 |
| 20260905030604 | 58 | 267 | 14.8 | 20.0 | 0.08 | 1.06 | 0.51 | 75 | 1011.0 |
| 20260905030203 | 58 | 264 | 11.3 | 20.9 | 0.08 | 1.06 | 0.51 | 76 | 1011.0 |
| 20260905030003 | 58 | 266 | 11.3 | 20.9 | 0.08 | 1.06 | 0.51 | 76 | 1011.0 |
| 20260905025803 | 58 | 267 | 11.3 | 20.9 | 0.08 | 1.06 | 0.51 | 76 | 1011.0 |
| 20260905025603 | 58 | 266 | 10.4 | 21.7 | 0.08 | 1.06 | 0.51 | 76 | 1011.0 |
| 20260905025403 | 58 | 265 | 14.8 | 24.3 | 0.08 | 1.06 | 0.51 | 75 | 1011.0 |
| 20260905025203 | 58 | 264 | 13.9 | 24.3 | 0.08 | 1.06 | 0.51 | 76 | 1011.0 |
| 20260905024603 | 58 | 262 | 14.8 | 24.3 | 0.08 | 1.06 | 0.51 | 76 | 1011.0 |
| 20260905024403 | 58 | 262 | 9.6 | 23.5 | 0.04 | 1.02 | 0.47 | 77 | 1011.0 |
| 20260905024203 | 58 | 262 | 13.9 | 23.5 | 0.04 | 1.02 | 0.47 | 76 | 1010.0 |
| 20260905024003 | 58 | 260 | 13.0 | 23.5 | 0.04 | 1.02 | 0.47 | 76 | 1010.0 |
| 20260905023803 | 58 | 260 | 15.6 | 23.5 | 0.04 | 1.02 | 0.47 | 76 | 1010.0 |
| 20260905023603 | 58 | 258 | 13.9 | 23.5 | 0.08 | 0.98 | 0.43 | 76 | 1010.0 |
| 20260905023403 | 58 | 259 | 12.2 | 19.1 | 0.08 | 0.98 | 0.43 | 77 | 1010.0 |
| 20260905023203 | 58 | 258 | 10.4 | 19.1 | 0.08 | 0.98 | 0.43 | 77 | 1010.0 |
| 20260905022803 | 58 | 255 | 13.0 | 19.1 | 0.08 | 0.98 | 0.43 | 77 | 1010.0 |
| 20260905022603 | 58 | 255 | 9.6 | 19.1 | 0.08 | 0.98 | 0.43 | 78 | 1010.0 |
| 20260905022403 | 58 | 254 | 13.0 | 19.1 | 0.08 | 0.98 | 0.43 | 77 | 1010.0 |
| 20260905022203 | 58 | 256 | 11.3 | 16.5 | 0.08 | 0.98 | 0.43 | 77 | 1010.0 |
| 20260905021803 | 58 | 256 | 9.6 | 17.4 | 0.08 | 0.98 | 0.43 | 77 | 1010.0 |
| 20260905021603 | 58 | 258 | 9.6 | 17.4 | 0.08 | 0.98 | 0.43 | 77 | 1010.0 |
| 20260905021404 | 58 | 255 | 11.3 | 17.4 | 0.08 | 0.98 | 0.43 | 77 | 1010.0 |
| 20260905021203 | 58 | 256 | 12.2 | 20.0 | 0.08 | 0.98 | 0.43 | 76 | 1010.0 |
| 20260905020603 | 58 | 259 | 7.8 | 23.5 | 0.08 | 0.98 | 0.43 | 76 | 1010.0 |
| 20260905020403 | 58 | 262 | 15.6 | 23.5 | 0.08 | 0.98 | 0.43 | 75 | 1010.0 |
| 20260905020203 | 58 | 264 | 16.5 | 23.5 | 0.08 | 0.98 | 0.43 | 75 | 1010.0 |
| 20260905020003 | 58 | 266 | 9.6 | 20.9 | 0.08 | 0.98 | 0.43 | 76 | 1010.0 |
| 20260905015803 | 58 | 266 | 8.7 | 20.9 | 0.08 | 0.98 | 0.43 | 75 | 1010.0 |
| 20260905015603 | 58 | 266 | 11.3 | 19.1 | 0.08 | 0.98 | 0.43 | 75 | 1010.0 |
| 20260905015403 | 58 | 268 | 11.3 | 24.3 | 0.12 | 0.98 | 0.43 | 75 | 1010.0 |
| 20260905015003 | 58 | 269 | 11.3 | 24.3 | 0.12 | 0.98 | 0.43 | 74 | 1010.0 |
| 20260905014803 | 58 | 270 | 13.0 | 24.3 | 0.12 | 0.98 | 0.43 | 74 | 1010.0 |
| 20260905014603 | 58 | 269 | 20.9 | 25.2 | 0.12 | 0.98 | 0.43 | 73 | 1010.0 |
| 20260905014403 | 58 | 270 | 13.0 | 25.2 | 0.12 | 0.98 | 0.43 | 74 | 1010.0 |
| 20260905014202 | 58 | 270 | 13.0 | 25.2 | 0.12 | 0.98 | 0.43 | 74 | 1010.0 |
| 20260905014004 | 58 | 270 | 11.3 | 25.2 | 0.12 | 0.98 | 0.43 | 74 | 1010.0 |
| 20260905013803 | 58 | 270 | 14.8 | 25.2 | 0.12 | 0.98 | 0.43 | 74 | 1010.0 |
| 20260905013603 | 58 | 271 | 13.9 | 20.9 | 0.04 | 0.91 | 0.35 | 75 | 1010.0 |
| 20260905013202 | 58 | 269 | 13.0 | 20.9 | 0.08 | 0.91 | 0.35 | 75 | 1010.0 |
| 20260905013003 | 58 | 268 | 11.3 | 19.1 | 0.08 | 0.91 | 0.35 | 75 | 1010.0 |
| 20260905012803 | 58 | 267 | 12.2 | 19.1 | 0.28 | 0.91 | 0.35 | 75 | 1010.0 |
| 20260905012604 | 58 | 266 | 13.0 | 25.2 | 0.28 | 0.91 | 0.35 | 76 | 1010.0 |
| 20260905012403 | 58 | 264 | 11.3 | 25.2 | 0.28 | 0.91 | 0.35 | 76 | 1010.0 |
| 20260905012203 | 58 | 264 | 12.2 | 25.2 | 0.28 | 0.91 | 0.35 | 76 | 1010.0 |
| 20260905012003 | 58 | 262 | 12.2 | 25.2 | 0.28 | 0.91 | 0.35 | 76 | 1010.0 |
| 20260905011803 | 59 | 260 | 18.2 | 25.2 | 0.28 | 0.91 | 0.35 | 76 | 1010.0 |
| 20260905011603 | 58 | 257 | 12.2 | 20.0 | 0.28 | 0.91 | 0.35 | 76 | 1010.0 |
| 20260905011403 | 59 | 259 | 12.2 | 20.0 | 0.28 | 0.91 | 0.35 | 75 | 1010.0 |
| 20260905011005 | 59 | 258 | 13.0 | 20.0 | 0.28 | 0.91 | 0.35 | 76 | 1010.0 |
| 20260905010803 | 59 | 257 | 13.0 | 19.1 | 0.31 | 0.91 | 0.35 | 76 | 1010.0 |
| 20260905010603 | 59 | 258 | 13.0 | 20.9 | 0.31 | 0.91 | 0.35 | 76 | 1010.0 |
| 20260905010405 | 58 | 256 | 7.0 | 21.7 | 0.31 | 0.91 | 0.35 | 77 | 1010.0 |
| 20260905010205 | 59 | 256 | 12.2 | 21.7 | 0.31 | 0.91 | 0.35 | 76 | 1010.0 |
| 20260905010003 | 59 | 255 | 7.0 | 21.7 | 0.35 | 0.91 | 0.35 | 76 | 1010.0 |
| 20260905005803 | 59 | 258 | 8.7 | 21.7 | 0.35 | 0.91 | 0.35 | 76 | 1010.0 |
| 20260905005604 | 59 | 258 | 13.0 | 21.7 | 0.35 | 0.91 | 0.35 | 76 | 1010.0 |
| 20260905005203 | 59 | 262 | 13.0 | 18.2 | 0.31 | 0.87 | 0.31 | 76 | 1010.0 |
| 20260905005003 | 59 | 264 | 10.4 | 20.9 | 0.31 | 0.87 | 0.31 | 77 | 1010.0 |
| 20260905004804 | 59 | 261 | 8.7 | 20.9 | 0.31 | 0.87 | 0.31 | 77 | 1010.0 |
| 20260905004603 | 59 | 258 | 13.0 | 20.9 | 0.31 | 0.87 | 0.31 | 76 | 1010.0 |
| 20260905004403 | 59 | 258 | 11.3 | 20.9 | 0.31 | 0.87 | 0.31 | 76 | 1010.0 |
| 20260905004207 | 59 | 259 | 16.5 | 20.9 | 0.31 | 0.87 | 0.31 | 76 | 1010.0 |
| 20260905004003 | 59 | 256 | 13.9 | 24.3 | 0.31 | 0.87 | 0.31 | 76 | 1010.0 |
| 20260905003803 | 59 | 261 | 13.9 | 25.2 | 0.31 | 0.87 | 0.31 | 76 | 1010.0 |
| 20260905003604 | 59 | 264 | 9.6 | 25.2 | 0.31 | 0.87 | 0.31 | 77 | 1010.0 |
| 20260905003403 | 59 | 262 | 13.0 | 25.2 | 0.31 | 0.87 | 0.31 | 77 | 1010.0 |
| 20260905003203 | 59 | 259 | 10.4 | 25.2 | 0.28 | 0.83 | 0.28 | 77 | 1010.0 |
| 20260905002802 | 59 | 254 | 8.7 | 23.5 | 0.08 | 0.63 | 0.08 | 78 | 1010.0 |
| 20260905002603 | 59 | 254 | 11.3 | 23.5 | 0.08 | 0.63 | 0.08 | 77 | 1010.0 |
| 20260905002004 | 59 | 253 | 18.2 | 23.5 | 0.08 | 0.63 | 0.08 | 77 | 1010.0 |
| 20260905001403 | 59 | 251 | 10.4 | 24.3 | 0.08 | 0.63 | 0.08 | 79 | 1010.0 |
| 20260905001204 | 59 | 253 | 12.2 | 24.3 | 0.08 | 0.63 | 0.08 | 79 | 1009.0 |
| 20260905001003 | 59 | 253 | 13.0 | 24.3 | 0.08 | 0.63 | 0.08 | 79 | 1009.0 |
| 20260905000803 | 59 | 253 | 12.2 | 24.3 | 0.04 | 0.59 | 0.04 | 79 | 1009.0 |
| 20260905000603 | 59 | 253 | 13.0 | 24.3 | 0.04 | 0.59 | 0.04 | 79 | 1009.0 |
| 20260905000403 | 59 | 251 | 11.3 | 24.3 | 0.04 | 0.59 | 0.04 | 79 | 1009.0 |
| 20260905000204 | 59 | 249 | 13.0 | 24.3 | 0.04 | 0.59 | 0.04 | 79 | 1009.0 |
| 20260905000003 | 59 | 250 | 8.7 | 22.6 | 0.00 | 0.55 | 0.00 | 80 | 1009.0 |